Date,TemperatureHighF,TemperatureAvgF,TemperatureLowF,DewpointHighF,DewpointAvgF,DewpointLowF,HumidityHigh,HumidityAvg,HumidityLow,PressureMaxIn,PressureMinIn,WindSpeedMaxMPH,WindSpeedAvgMPH,GustSpeedMaxMPH,PrecipitationSumIn
2013-1-1,69.0,59.2,50.0,65.0,57.5,48.0,98,95,88,30.22,29.93,10,5,20,2.01
2013-1-2,49.0,45.0,42.0,48.0,43.2,39.0,97,93,88,30.36,30.20,10,5,20,0.03
2013-1-3,53.0,44.2,39.0,43.0,38.6,37.0,94,81,61,30.51,30.33,9,3,20,0.01
2013-1-4,55.0,46.7,39.0,40.0,37.5,33.0,88,72,47,30.58,30.40,7,2,14,0.00
2013-1-5,51.0,47.3,45.0,46.0,42.2,39.0,99,83,71,30.44,30.31,7,2,13,0.20
2013-1-6,56.0,48.3,45.0,50.0,46.1,43.0,99,92,74,30.40,30.26,8,3,17,2.00
2013-1-7,60.0,49.8,39.0,49.0,43.4,38.0,98,80,58,30.42,30.21,7,1,14,0.01
2013-1-8,63.0,57.5,52.0,62.0,54.6,45.0,98,91,76,30.22,30.05,9,3,14,1.10
2013-1-9,68.0,65.1,62.0,67.0,64.1,61.0,98,98,97,30.16,30.04,9,4,20,1.64
2013-1-10,71.0,66.0,64.0,70.0,65.0,63.0,98,98,97,30.13,29.95,10,3,22,2.84
2013-1-11,73.0,65.8,61.0,72.0,63.9,60.0,99,94,79,30.11,29.96,7,2,12,0.93
2013-1-12,77.0,73.3,71.0,71.0,70.5,69.0,97,91,80,30.01,29.84,6,3,14,0.25
2013-1-13,74.0,61.9,47.0,72.0,60.4,46.0,99,95,91,30.19,29.78,15,5,26,0.07
2013-1-14,47.0,43.0,38.0,46.0,42.2,37.0,99,98,94,30.27,30.13,13,5,28,0.04
2013-1-15,42.0,40.2,37.0,42.0,40.0,37.0,100,99,96,30.19,30.09,10,5,17,0.02
2013-1-16,40.0,37.9,36.0,39.0,37.5,36.0,100,98,96,30.33,30.17,10,6,18,0.02
2013-1-17,57.0,43.5,34.0,43.0,37.9,33.0,100,83,55,30.58,30.32,10,3,17,0.03
2013-1-18,60.0,44.7,33.0,42.0,37.7,33.0,100,80,43,30.65,30.41,7,1,12,0.06
2013-1-19,63.0,48.6,35.0,51.0,43.4,34.0,99,84,58,30.51,30.24,7,1,10,0.05
2013-1-20,69.0,51.3,37.0,53.0,44.5,37.0,99,81,45,30.38,30.13,3,0,8,0.03
2013-1-21,69.0,54.3,42.0,54.0,47.5,41.0,99,81,48,30.31,30.16,6,1,10,0.03
2013-1-22,69.0,53.0,42.0,52.0,46.2,40.0,97,80,51,30.42,30.25,5,1,9,0.02
2013-1-23,71.0,57.4,43.0,57.0,51.6,43.0,99,84,56,30.46,30.27,5,1,10,0.02
2013-1-24,73.0,63.3,53.0,63.0,58.9,52.0,98,86,69,30.37,30.20,6,2,9,0.02
2013-1-25,75.0,64.9,56.0,63.0,59.9,55.0,98,85,63,30.27,30.11,7,2,15,0.01
2013-1-26,76.0,63.4,54.0,65.0,58.8,53.0,99,87,58,30.27,30.13,6,1,10,0.02
2013-1-27,77.0,65.9,54.0,64.0,60.6,53.0,99,84,60,30.25,30.12,6,3,16,0.02
2013-1-28,76.0,68.7,63.0,68.0,65.2,62.0,96,89,74,30.23,30.08,7,2,15,0.01
2013-1-29,78.0,72.5,68.0,72.0,69.2,67.0,96,90,79,30.08,29.72,9,4,20,0.02
2013-1-30,73.0,57.6,44.0,70.0,47.8,36.0,98,72,46,30.28,29.69,16,6,30,0.02
2013-1-31,62.0,54.5,37.0,42.0,36.7,32.0,99,54,34,30.42,30.26,5,1,9,0.01
2013-2-1,68.0,53.3,44.0,48.0,44.1,40.0,96,74,41,30.48,30.29,6,1,12,0.01
2013-2-2,71.0,56.6,41.0,57.0,50.0,40.0,99,81,54,30.41,30.16,5,1,12,0.02
2013-2-3,72.0,58.0,46.0,57.0,46.3,36.0,99,71,29,30.36,30.15,8,1,12,0.03
2013-2-4,68.0,56.5,45.0,57.0,51.7,42.0,97,85,60,30.19,29.94,6,1,9,0.02
2013-2-5,73.0,62.6,55.0,66.0,60.0,54.0,99,92,76,30.08,29.93,6,1,9,0.01
2013-2-6,68.0,60.0,52.0,64.0,58.7,52.0,99,96,85,30.14,29.98,6,2,15,0.01
2013-2-7,71.0,61.7,57.0,63.0,59.5,56.0,99,93,75,30.01,29.88,11,2,20,0.02
2013-2-8,69.0,60.5,52.0,61.0,57.7,50.0,99,91,75,30.22,29.99,10,3,20,0.02
2013-2-9,68.0,59.8,53.0,61.0,55.9,51.0,96,87,72,30.24,30.01,9,4,16,0.02
2013-2-10,77.0,70.1,62.0,72.0,67.3,61.0,98,91,81,30.01,29.83,9,4,20,0.03
2013-2-11,66.0,58.0,55.0,65.0,57.1,54.0,99,98,95,30.19,29.98,10,4,18,0.04
2013-2-12,74.0,60.8,55.0,72.0,60.0,54.0,99,97,89,30.07,29.72,10,5,18,0.03
2013-2-13,59.0,52.5,42.0,55.0,48.2,41.0,97,86,65,30.17,29.94,10,4,18,0.03
2013-2-14,61.0,48.3,37.0,47.0,42.4,37.0,100,82,54,30.27,30.07,5,1,10,0.03
2013-2-15,66.0,52.1,37.0,48.0,43.0,37.0,100,74,42,30.30,30.10,13,3,22,0.03
2013-2-16,56.0,47.3,37.0,45.0,33.8,28.0,90,62,36,30.45,30.28,14,6,23,0.01
2013-2-17,64.0,49.1,32.0,49.0,40.8,32.0,98,76,49,30.45,30.20,7,2,13,0.02
2013-2-18,71.0,61.6,50.0,66.0,56.3,45.0,96,83,62,30.27,29.93,9,4,21,0.02
2013-2-19,65.0,57.6,48.0,64.0,46.4,34.0,96,69,32,30.30,29.99,10,5,21,0.02
2013-2-20,62.0,53.2,45.0,40.0,36.2,31.0,74,53,42,30.31,30.02,10,5,22,0.01
2013-2-21,73.0,65.0,55.0,71.0,58.3,37.0,96,80,50,30.02,29.70,11,7,22,0.03
2013-2-22,68.0,63.0,58.0,65.0,56.6,49.0,96,81,54,30.00,29.86,8,3,16,0.01
2013-2-23,68.0,57.2,51.0,56.0,52.5,48.0,96,85,64,30.04,29.89,7,3,15,0.01
2013-2-24,72.0,58.4,45.0,61.0,52.3,44.0,98,82,53,30.05,29.73,11,3,21,0.01
2013-2-25,70.0,64.3,55.0,69.0,60.6,39.0,99,90,51,29.74,29.42,13,5,20,0.02
2013-2-26,62.0,52.4,45.0,47.0,42.6,38.0,89,70,52,30.00,29.67,9,4,18,0.02
2013-2-27,69.0,56.5,45.0,55.0,46.5,40.0,97,72,42,30.16,29.93,7,2,15,0.01
2013-2-28,53.0,47.6,42.0,42.0,38.3,35.0,89,71,55,30.28,30.14,9,3,18,0.01
2013-3-1,60.0,48.5,38.0,43.0,38.0,34.0,95,70,39,30.29,30.11,11,4,22,0.01
2013-3-2,48.0,41.4,34.0,38.0,33.9,31.0,97,76,54,30.40,30.27,13,4,22,0.01
2013-3-3,59.0,44.3,28.0,42.0,34.2,28.0,99,72,40,30.45,30.15,5,1,10,1.86
2013-3-4,72.0,61.0,47.0,62.0,54.9,42.0,96,81,60,30.20,29.89,10,4,21,0.01
2013-3-5,73.0,65.1,53.0,65.0,53.3,35.0,95,69,33,30.32,29.91,10,5,23,0.00
2013-3-6,63.0,51.4,37.0,38.0,34.1,31.0,80,53,31,30.47,30.24,9,3,15,0.00
2013-3-7,67.0,51.5,36.0,42.0,38.1,34.0,95,64,32,30.44,30.22,5,1,9,0.00
2013-3-8,73.0,53.1,39.0,53.0,43.3,38.0,99,76,33,30.37,30.17,6,1,13,0.00
2013-3-10,77.0,66.1,55.0,67.0,61.9,54.0,99,87,69,30.01,29.81,9,5,22,0.92
2013-3-11,59.0,52.0,45.0,55.0,43.6,39.0,99,75,48,30.15,29.95,13,5,23,1.20
2013-3-12,68.0,52.1,37.0,45.0,41.0,36.0,99,71,36,30.31,30.12,6,1,16,0.01
2013-3-13,68.0,54.8,42.0,45.0,39.6,30.0,97,63,26,30.47,30.31,10,3,24,0.00
2013-3-14,71.0,55.2,37.0,50.0,39.8,35.0,97,62,28,30.54,30.28,6,1,12,0.00
2013-3-15,75.0,60.2,45.0,57.0,51.0,44.0,98,75,36,30.37,30.10,9,2,15,0.00
2013-3-16,76.0,64.7,51.0,61.0,57.3,50.0,98,79,49,30.18,29.89,7,2,16,0.00
2013-3-17,77.0,68.2,60.0,68.0,63.8,59.0,98,87,65,29.98,29.76,7,2,13,0.00
2013-3-18,82.0,74.2,70.0,70.0,68.3,64.0,96,83,61,29.92,29.70,8,2,18,0.00
2013-3-19,79.0,66.8,54.0,64.0,52.0,45.0,87,61,38,30.06,29.88,9,3,16,0.00
2013-3-20,72.0,60.9,51.0,54.0,45.2,35.0,98,59,28,30.25,30.01,14,3,22,0.24
2013-3-21,70.0,57.5,46.0,49.0,43.4,38.0,85,62,37,30.13,29.81,10,2,17,0.08
2013-3-22,80.0,67.8,58.0,71.0,63.9,49.0,97,88,69,29.89,29.67,6,1,13,0.01
2013-3-23,72.0,69.7,68.0,71.0,68.7,67.0,98,97,95,29.79,29.57,4,1,10,0.07
2013-3-24,69.0,60.9,49.0,68.0,51.2,36.0,98,74,39,30.15,29.64,13,5,26,0.01
2013-3-25,60.0,48.8,38.0,37.0,31.7,28.0,80,54,30,30.39,30.14,12,5,22,0.00
2013-3-26,58.0,46.2,33.0,35.0,31.2,27.0,90,58,38,30.55,30.34,10,3,18,0.00
2013-3-27,66.0,49.9,34.0,43.0,36.3,33.0,96,64,32,30.55,30.26,6,0,10,0.00
2013-3-28,74.0,55.6,38.0,54.0,45.0,37.0,100,73,35,30.44,30.18,3,0,8,0.00
2013-3-29,77.0,61.6,46.0,58.0,49.3,37.0,99,71,24,30.37,30.13,5,0,12,0.00
2013-3-30,76.0,66.0,57.0,64.0,59.5,-99.9,98,84,58,30.23,30.00,6,1,15,0.00
2013-3-31,77.0,65.1,58.0,68.0,62.7,56.0,99,93,68,30.06,29.91,12,1,32,0.29
2013-4-1,80.0,65.7,56.0,65.0,59.0,56.0,99,81,50,30.11,29.94,5,1,12,0.01
2013-4-2,79.0,66.5,54.0,65.0,58.7,53.0,98,79,51,30.13,29.93,9,2,16,0.00
2013-4-3,66.0,57.9,51.0,65.0,57.2,50.0,100,98,94,30.09,29.80,10,5,17,2.38
2013-4-4,56.0,51.1,48.0,53.0,49.7,47.0,100,95,86,30.16,30.01,9,4,17,0.01
2013-4-5,72.0,57.0,46.0,55.0,49.3,45.0,98,78,49,30.26,30.06,9,4,17,0.01
2013-4-6,72.0,60.5,47.0,58.0,53.1,46.0,97,79,55,30.20,30.02,5,2,14,0.00
2013-4-7,78.0,67.5,57.0,65.0,60.3,56.0,98,80,56,30.08,29.91,6,2,13,0.00
2013-4-8,81.0,78.6,73.0,66.0,64.9,64.0,79,63,56,29.95,29.86,6,3,17,0.00
2013-4-9,82.0,79.2,77.0,73.0,72.1,71.0,86,79,71,29.92,29.82,11,4,28,0.00
2013-4-10,82.0,77.1,73.0,73.0,71.8,70.0,92,84,72,29.90,29.75,11,4,30,0.00
2013-4-11,75.0,62.5,52.0,73.0,60.2,51.0,99,92,77,29.91,29.66,11,3,20,1.08
2013-4-12,77.0,60.0,44.0,57.0,49.9,44.0,99,74,36,30.04,29.88,9,1,13,0.02
2013-4-13,80.0,66.3,50.0,58.0,52.1,47.0,95,65,32,30.07,29.82,7,2,15,0.00
2013-4-14,78.0,66.6,58.0,68.0,63.4,55.0,99,90,70,29.88,29.67,12,4,20,4.24
2013-4-15,85.0,73.7,63.0,75.0,69.0,62.0,98,87,61,29.91,29.80,7,2,14,0.01
2013-4-16,85.0,77.6,74.0,75.0,73.8,73.0,97,88,72,30.02,29.90,6,2,16,0.02
2013-4-17,86.0,79.1,73.0,75.0,72.7,71.0,96,82,65,30.02,29.83,9,4,21,0.01
2013-4-18,84.0,75.1,55.0,73.0,69.9,53.0,98,84,70,29.99,29.70,12,4,29,0.28
2013-4-19,63.0,54.5,47.0,53.0,44.1,40.0,98,69,49,30.26,29.99,12,6,24,0.28
2013-4-20,71.0,57.0,41.0,50.0,44.3,40.0,99,67,37,30.34,30.09,7,1,14,0.00
2013-4-21,76.0,60.8,45.0,53.0,49.6,44.0,99,72,41,30.27,30.04,6,1,14,0.00
2013-4-22,80.0,65.5,49.0,62.0,54.7,48.0,99,73,43,30.18,29.93,5,1,13,0.00
2013-4-23,83.0,73.3,65.0,71.0,68.0,63.0,98,85,64,30.03,29.88,5,1,10,0.00
2013-4-24,72.0,64.2,57.0,70.0,61.7,53.0,98,92,84,30.25,29.95,11,4,23,1.27
2013-4-25,75.0,62.4,54.0,60.0,54.3,51.0,96,77,48,30.34,30.19,6,2,15,0.02
2013-4-26,79.0,68.2,55.0,70.0,61.5,51.0,95,80,65,30.29,30.12,7,1,13,0.00
2013-4-27,82.0,74.7,69.0,71.0,69.1,66.0,96,84,62,30.18,29.99,4,1,13,0.00
2013-4-28,79.0,72.2,65.0,71.0,68.3,64.0,96,88,70,30.04,29.90,6,0,10,0.02
2013-4-29,85.0,72.2,62.0,69.0,64.9,61.0,99,81,47,29.98,29.82,6,1,10,0.02
2013-4-30,78.0,70.0,64.0,72.0,67.7,63.0,98,93,77,29.90,29.78,10,2,15,0.00
2013-5-1,85.0,73.2,65.0,69.0,66.9,64.0,98,83,52,29.88,29.73,11,2,18,1.09
2013-5-2,78.0,69.2,64.0,70.0,66.3,63.0,99,91,71,29.98,29.87,9,3,17,1.09
2013-5-3,68.0,55.3,48.0,66.0,51.1,45.0,98,87,65,30.12,29.98,12,6,22,0.00
2013-5-4,74.0,58.4,41.0,57.0,47.5,41.0,100,72,35,30.12,29.83,5,1,10,0.00
2013-5-5,67.0,58.1,50.0,58.0,48.0,44.0,96,71,48,30.11,29.94,9,3,17,0.00
2013-5-6,77.0,61.7,45.0,59.0,52.2,44.0,99,74,47,30.14,29.90,5,1,12,0.00
2013-5-7,84.0,70.2,58.0,63.0,59.4,57.0,99,73,42,30.07,29.92,6,1,12,0.00
2013-5-8,84.0,70.9,57.0,68.0,61.9,56.0,99,76,47,30.10,29.98,4,1,9,0.00
2013-5-9,81.0,72.7,62.0,72.0,67.9,61.0,98,86,68,30.08,29.95,9,2,16,0.00
2013-5-10,75.0,68.2,64.0,73.0,64.8,-99.9,98,93,79,30.06,29.84,7,2,18,2.26
2013-5-11,80.0,69.9,63.0,72.0,66.1,-99.9,99,90,71,30.08,29.91,8,1,15,0.93
2013-5-12,80.0,69.7,58.0,66.0,62.0,56.0,99,79,51,30.21,30.05,8,2,15,0.27
2013-5-13,83.0,66.3,51.0,59.0,53.1,50.0,99,68,34,30.31,30.14,6,1,15,0.07
2013-5-14,85.0,70.6,56.0,64.0,57.6,53.0,99,69,35,30.28,30.09,2,0,8,0.03
2013-5-15,83.0,70.2,58.0,69.0,62.3,57.0,98,79,50,30.20,29.98,4,0,10,0.01
2013-5-16,84.0,68.7,66.0,72.0,47.2,-99.9,97,81,56,30.03,29.83,3,1,12,0.00
2013-5-17,87.0,77.5,71.0,74.0,67.3,-99.9,98,83,62,29.99,29.87,4,1,9,0.00
2013-5-18,89.0,80.2,74.0,75.0,72.8,70.0,96,80,57,30.01,29.89,3,1,9,0.00
2013-5-19,88.0,80.2,74.0,76.0,73.6,71.0,96,82,61,29.96,29.84,4,1,14,0.00
2013-5-20,90.0,81.6,77.0,76.0,74.8,73.0,93,81,62,29.95,29.80,5,2,15,0.00
2013-5-21,84.0,78.6,76.0,76.0,74.9,74.0,95,89,74,29.90,29.87,3,1,16,0.00
2013-5-23,85.0,71.7,68.0,75.0,67.4,64.0,96,87,66,30.06,29.91,13,3,24,0.64
2013-5-24,91.0,78.5,66.0,76.0,70.7,65.0,98,79,52,30.12,29.99,6,1,10,0.64
2013-5-25,89.0,78.1,71.0,76.0,70.9,66.0,96,80,61,30.19,30.05,8,2,13,0.00
2013-5-26,88.0,77.6,69.0,75.0,71.2,66.0,96,82,57,30.13,30.02,6,1,14,0.59
2013-5-27,88.0,78.1,70.0,75.0,70.3,65.0,98,79,49,30.09,29.91,6,1,10,0.03
2013-5-28,88.0,79.4,71.0,73.0,70.3,66.0,95,76,50,30.03,29.88,9,2,16,0.00
2013-5-29,90.0,79.4,68.0,75.0,71.6,67.0,98,79,57,29.97,29.80,7,1,13,0.00
2013-5-30,90.0,81.0,74.0,76.0,73.8,71.0,97,81,56,29.93,29.80,9,2,17,0.00
2013-5-31,88.0,81.5,75.0,80.0,75.7,74.0,96,83,65,29.94,29.83,5,2,9,0.02
2013-6-1,91.0,82.2,76.0,79.0,75.7,74.0,97,82,62,29.91,29.80,4,1,9,0.01
2013-6-2,85.0,78.2,74.0,76.0,74.1,72.0,97,88,68,29.96,29.80,8,1,15,0.05
2013-6-3,91.0,80.6,71.0,76.0,72.8,70.0,98,79,53,29.92,29.76,6,1,12,0.05
2013-6-4,95.0,83.6,72.0,76.0,73.0,70.0,96,73,48,29.89,29.73,5,1,9,0.00
2013-6-5,95.0,83.6,74.0,78.0,75.4,73.0,97,78,53,29.87,29.70,5,1,10,0.00
2013-6-6,90.0,77.0,70.0,78.0,73.6,69.0,98,90,61,29.85,29.69,7,1,16,1.52
2013-6-7,86.0,75.9,70.0,73.0,70.4,69.0,98,85,60,29.88,29.76,5,1,10,0.37
2013-6-8,91.0,76.0,69.0,74.0,70.6,68.0,98,86,53,29.93,29.80,6,1,14,0.00
2013-6-9,92.0,77.4,70.0,78.0,72.1,69.0,98,85,58,29.96,29.79,5,1,9,0.00
2013-6-10,92.0,81.0,71.0,77.0,74.5,70.0,98,82,60,29.97,29.89,3,1,7,0.00
2013-6-11,94.0,83.7,74.0,79.0,75.4,71.0,98,79,48,30.05,29.90,2,0,7,0.00
2013-6-12,94.0,82.7,74.0,78.0,75.4,73.0,98,81,55,30.07,29.93,3,0,10,0.00
2013-6-13,94.0,84.3,74.0,78.0,75.3,73.0,98,77,53,30.03,29.82,5,1,10,0.00
2013-6-14,97.0,84.2,77.0,83.0,77.8,75.0,97,83,54,29.92,29.76,6,1,12,0.35
2013-6-15,95.0,83.4,73.0,80.0,75.7,71.0,92,79,55,29.97,29.82,3,0,8,0.22
2013-6-16,93.0,84.6,77.0,79.0,76.4,74.0,96,78,57,30.02,29.86,3,0,8,0.00
2013-6-17,91.0,82.4,73.0,78.0,75.0,72.0,97,80,58,29.97,29.83,3,0,7,0.00
2013-6-18,92.0,83.2,74.0,77.0,74.0,71.0,96,76,52,29.97,29.79,6,1,17,0.00
2013-6-19,85.0,77.8,73.0,79.0,75.0,72.0,97,91,77,30.02,29.92,5,1,9,0.79
2013-6-20,92.0,80.3,74.0,77.0,74.6,71.0,98,85,50,30.07,29.96,6,1,8,0.01
2013-6-22,95.0,89.0,78.0,76.0,73.4,70.0,84,61,45,30.03,29.90,8,3,16,0.00
2013-6-23,92.0,79.1,72.0,78.0,74.6,71.0,98,87,55,30.02,29.94,5,1,13,1.26
2013-6-24,91.0,81.7,74.0,78.0,75.1,71.0,97,82,57,30.07,29.96,6,1,13,0.98
2013-6-25,93.0,83.0,74.0,78.0,74.8,69.0,98,78,48,30.07,29.91,4,1,8,0.00
2013-6-26,95.0,85.3,73.0,78.0,74.7,72.0,97,73,48,30.00,29.86,3,1,9,0.00
2013-6-27,96.0,84.4,74.0,79.0,75.7,73.0,98,78,51,30.01,29.83,4,1,10,0.00
2013-6-28,95.0,85.7,78.0,79.0,76.9,73.0,96,77,51,29.93,29.71,3,1,10,0.00
2013-6-29,97.0,83.7,77.0,80.0,77.3,75.0,96,83,50,29.79,29.58,3,0,17,0.13
2013-6-30,93.0,82.1,74.0,76.0,69.2,61.0,98,70,35,29.80,29.67,7,2,14,0.13
2013-7-1,90.0,78.8,67.0,71.0,67.7,65.0,97,71,46,29.91,29.79,6,1,13,0.00
2013-7-2,91.0,78.9,67.0,72.0,67.4,64.0,97,71,42,29.98,29.85,6,1,12,0.00
2013-7-3,92.0,79.4,68.0,72.0,67.8,64.0,95,71,42,30.01,29.85,7,2,13,0.00
2013-7-4,93.0,80.7,69.0,75.0,69.9,66.0,97,73,42,29.97,29.83,6,1,13,0.00
2013-7-5,91.0,78.6,69.0,76.0,73.5,68.0,98,86,58,29.96,29.85,9,1,24,1.39
2013-7-6,87.0,75.2,70.0,78.0,72.5,69.0,98,92,72,29.97,29.87,14,1,23,0.01
2013-7-7,87.0,78.6,75.0,79.0,75.7,74.0,98,92,72,30.05,29.94,6,1,10,1.25
2013-7-8,93.0,78.6,72.0,78.0,73.4,-99.9,98,88,59,30.13,29.97,6,1,10,0.03
2013-7-9,93.0,83.0,74.0,79.0,76.0,73.0,98,81,55,30.14,29.97,5,0,9,0.03
2013-7-10,95.0,82.9,75.0,79.0,73.2,-99.9,98,77,52,30.08,29.87,2,0,7,0.00
2013-7-11,94.0,80.9,74.0,78.0,75.5,73.0,98,85,54,29.99,29.84,9,1,17,0.62
2013-7-12,96.0,82.5,73.0,80.0,75.0,72.0,98,81,47,29.94,29.76,4,1,9,0.12
2013-7-13,94.0,82.1,71.0,74.0,69.9,63.0,92,69,39,29.93,29.79,6,1,10,0.00
2013-7-14,92.0,79.6,71.0,78.0,73.2,69.0,96,82,50,29.95,29.84,6,1,12,0.00
2013-7-15,88.0,77.0,73.0,79.0,74.1,72.0,97,91,71,30.09,29.95,6,1,12,0.21
2013-7-16,88.0,79.2,74.0,78.0,75.1,72.0,97,88,68,30.13,30.01,7,2,14,0.08
2013-7-17,91.0,81.7,75.0,78.0,75.5,73.0,97,83,61,30.17,30.03,6,1,22,0.01
2013-7-18,92.0,80.1,72.0,77.0,73.5,71.0,98,82,60,30.13,29.94,6,1,13,0.01
2013-7-19,95.0,79.0,71.0,77.0,73.5,70.0,98,85,50,30.05,29.88,10,1,18,0.10
2013-7-20,91.0,79.8,73.0,76.0,72.5,-99.9,98,82,59,29.97,29.84,6,0,10,0.10
2013-7-21,87.0,79.3,74.0,77.0,74.6,73.0,98,86,70,30.01,29.88,5,1,9,0.03
2013-7-22,93.0,83.6,77.0,81.0,77.8,75.0,96,84,62,30.01,29.91,4,1,10,0.04
2013-7-23,93.0,83.9,76.0,79.0,76.4,74.0,97,80,56,30.01,29.84,3,1,9,0.04
2013-7-24,93.0,84.1,76.0,78.0,76.1,73.0,97,79,54,29.98,29.79,5,1,12,0.00
2013-7-25,95.0,83.9,76.0,78.0,75.4,74.0,95,78,52,30.01,29.91,7,1,9,0.00
2013-7-26,95.0,82.9,74.0,79.0,75.8,73.0,98,81,55,30.04,29.86,2,0,12,0.00
2013-7-27,90.0,81.6,78.0,79.0,77.4,75.0,96,88,63,29.94,29.80,6,1,15,0.04
2013-7-28,92.0,82.0,74.0,78.0,76.1,73.0,97,83,60,29.98,29.85,4,1,8,0.01
2013-7-29,97.0,84.0,75.0,80.0,75.2,69.0,98,78,42,30.07,29.95,5,0,9,0.00
2013-7-30,95.0,84.5,74.0,79.0,75.5,73.0,98,77,52,30.11,29.95,3,0,7,0.00
2013-7-31,97.0,84.4,74.0,78.0,75.6,73.0,97,78,50,30.07,29.86,3,0,9,0.00
2013-8-1,99.0,83.9,76.0,79.0,76.1,74.0,97,80,47,30.00,29.81,4,1,9,0.00
2013-8-2,100.0,85.9,77.0,79.0,77.1,74.0,97,77,47,29.96,29.82,3,0,8,0.00
2013-8-3,96.0,85.2,75.0,79.0,76.1,73.0,98,77,49,30.02,29.89,1,0,3,0.00
2013-8-4,99.0,82.4,75.0,79.0,76.5,74.0,98,85,49,30.07,29.90,0,0,2,1.18
2013-8-5,96.0,83.9,76.0,80.0,76.7,75.0,98,81,52,30.03,29.86,3,0,8,0.39
2013-8-6,98.0,85.6,76.0,80.0,76.8,74.0,97,78,49,29.96,29.80,3,0,9,0.00
2013-8-7,99.0,85.9,75.0,80.0,76.4,74.0,98,76,46,29.93,29.76,3,0,8,0.00
2013-8-8,97.0,84.8,74.0,79.0,76.4,73.0,98,78,49,29.91,29.77,5,0,12,0.00
2013-8-9,98.0,83.8,76.0,79.0,76.6,75.0,97,81,49,29.97,29.80,9,1,18,0.00
2013-8-10,95.0,83.4,77.0,79.0,76.9,75.0,97,82,61,30.03,29.90,6,1,12,0.02
2013-8-11,92.0,80.8,75.0,82.0,76.8,74.0,97,89,61,30.06,29.98,5,1,9,0.21
2013-8-12,91.0,82.3,76.0,81.0,77.7,75.0,98,87,66,30.06,29.93,3,0,7,0.31
2013-8-13,96.0,83.0,74.0,80.0,74.3,-99.9,97,80,53,30.00,29.80,7,1,15,0.05
2013-8-14,86.0,76.4,74.0,81.0,72.9,-99.9,97,92,83,29.96,29.90,3,0,6,0.56
2013-8-15,89.0,71.2,73.0,77.0,55.6,-99.9,98,81,62,29.98,29.85,4,1,8,0.11
2013-8-16,92.0,77.3,70.0,75.0,65.4,-99.9,98,76,47,29.97,29.84,6,1,12,0.00
2013-8-17,91.0,78.1,68.0,74.0,68.1,-99.9,95,76,54,29.97,29.83,5,2,13,0.00
2013-8-18,91.0,78.9,70.0,73.0,71.5,69.0,98,80,53,29.98,29.89,6,2,13,0.00
2013-8-19,90.0,74.1,69.0,75.0,60.3,-99.9,98,82,60,30.04,29.89,4,1,10,0.00
2013-8-20,89.0,76.8,72.0,78.0,71.8,-99.9,98,90,66,30.03,29.95,5,1,10,0.74
2013-8-30,92.0,81.6,75.0,74.0,72.3,70.0,94,75,49,29.92,29.85,0,0,0,0.68
2013-8-31,96.0,80.9,71.0,77.0,70.6,-99.9,98,76,47,29.96,29.76,0,0,0,0.27
2013-9-1,97.0,83.6,74.0,78.0,74.8,73.0,98,77,48,29.91,29.74,2,0,10,0.00
2013-9-2,97.0,83.4,73.0,79.0,74.8,72.0,98,78,48,29.93,29.77,3,0,9,0.00
2013-9-3,93.0,81.2,75.0,79.0,75.4,73.0,98,84,58,29.95,29.83,5,0,12,0.00
2013-9-4,96.0,81.9,73.0,77.0,74.4,72.0,98,81,50,30.02,29.87,2,0,8,0.00
2013-9-5,96.0,82.6,73.0,79.0,74.8,72.0,98,80,50,30.07,29.91,10,1,22,0.00
2013-9-6,95.0,81.9,74.0,78.0,74.5,72.0,98,81,48,30.07,29.88,3,0,9,0.00
2013-9-8,94.0,79.8,69.0,75.0,71.3,68.0,98,79,46,30.00,29.85,3,0,9,0.00
2013-9-9,94.0,80.6,68.0,77.0,71.2,67.0,98,77,47,30.01,29.89,7,1,13,0.00
2013-9-10,93.0,80.5,71.0,80.0,73.7,70.0,98,82,54,30.08,29.96,7,1,12,0.16
2013-9-11,94.0,82.8,73.0,77.0,73.7,70.0,98,77,49,30.08,29.93,6,1,13,0.01
2013-9-14,86.0,74.9,77.0,74.0,62.4,-99.9,89,76,66,29.94,29.85,5,1,13,0.00
2013-9-15,94.0,80.0,72.0,74.0,72.3,69.0,97,80,49,30.01,29.88,4,0,8,0.00
2013-9-16,94.0,82.2,71.0,78.0,73.2,68.0,98,77,45,30.04,29.90,7,1,14,0.00
2013-9-17,94.0,81.9,72.0,76.0,72.7,71.0,98,77,48,30.03,29.86,6,1,13,0.00
2013-9-18,80.0,74.4,73.0,75.0,72.5,71.0,97,94,86,29.99,29.96,1,0,5,0.00
2013-9-19,93.0,80.0,75.0,77.0,75.4,74.0,98,88,58,29.97,29.84,7,2,16,1.48
2013-9-20,86.0,79.1,76.0,79.0,77.5,75.0,98,96,80,29.94,29.75,5,1,13,0.24
2013-9-21,79.0,77.8,76.0,78.0,76.8,75.0,98,97,97,29.75,29.72,0,0,6,0.17
2013-9-22,85.0,75.2,69.0,69.0,65.3,64.0,85,72,58,29.80,29.70,2,1,13,0.09
2013-9-23,90.0,76.5,65.0,79.0,70.7,63.0,97,84,60,29.83,29.70,6,1,9,0.08
2013-9-24,90.0,82.7,73.0,80.0,76.0,72.0,98,81,62,29.81,29.70,10,2,22,0.07
2013-9-25,92.0,78.0,66.0,75.0,66.5,56.0,99,74,31,29.85,29.69,5,1,9,0.05
2013-9-26,93.0,76.5,62.0,70.0,64.0,61.0,99,72,35,29.93,29.78,2,0,7,0.05
2013-9-27,91.0,76.1,64.0,72.0,67.2,63.0,99,78,44,30.00,29.86,4,0,8,0.05
2013-9-28,84.0,75.6,70.0,73.0,71.3,69.0,97,88,64,30.02,29.91,4,1,12,0.03
2013-9-29,86.0,75.8,71.0,75.0,72.0,70.0,98,89,63,30.02,29.88,4,0,9,0.04
2013-9-30,84.0,75.4,72.0,78.0,73.3,71.0,98,94,80,29.92,29.83,5,2,8,0.04
2013-10-1,78.0,75.5,74.0,75.0,74.0,73.0,97,95,90,29.99,29.93,1,0,7,0.05
2013-10-2,89.0,78.9,72.0,77.0,73.4,71.0,98,85,61,30.02,29.86,6,1,12,0.06
2013-10-3,88.0,77.3,71.0,78.0,73.5,70.0,98,90,67,29.98,29.85,5,1,12,0.06
2013-10-4,85.0,77.6,75.0,80.0,75.6,74.0,98,94,78,29.96,29.90,7,1,12,0.06
2013-10-5,87.0,77.2,74.0,78.0,75.1,73.0,98,94,69,29.96,29.84,5,1,10,0.05
2013-10-6,78.0,71.8,57.0,75.0,65.6,52.0,98,83,53,30.03,29.85,10,3,17,0.05
2013-10-7,78.0,63.8,55.0,59.0,55.9,54.0,98,79,49,30.10,29.95,7,2,15,0.07
2013-10-8,81.0,63.8,52.0,61.0,57.3,52.0,99,82,48,30.12,29.94,6,1,12,0.07
2013-10-9,86.0,67.6,52.0,65.0,58.6,52.0,100,77,40,30.11,29.95,3,0,8,0.06
2013-10-10,83.0,66.4,56.0,70.0,62.8,56.0,99,90,57,30.12,29.95,3,0,7,0.07
2013-10-11,88.0,69.6,59.0,73.0,65.2,59.0,100,88,59,30.02,29.88,3,1,8,0.06
2013-10-12,88.0,75.8,68.0,76.0,71.5,67.0,99,89,64,30.05,29.91,2,0,5,0.07
2013-10-14,87.0,76.1,70.0,74.0,69.9,66.0,98,84,55,30.11,29.93,6,1,10,0.64
2013-10-15,86.0,74.6,66.0,75.0,71.0,66.0,99,90,64,30.02,29.89,5,0,10,0.51
2013-10-16,89.0,77.2,69.0,75.0,72.0,68.0,98,86,60,29.96,29.81,6,1,10,0.37
2013-10-17,76.0,67.7,58.0,71.0,65.4,57.0,99,93,76,30.05,29.92,7,2,14,0.21
2013-10-18,76.0,64.2,55.0,64.0,59.6,55.0,100,86,56,30.09,29.90,5,1,13,0.12
2013-10-19,74.0,64.4,58.0,65.0,60.1,-99.9,99,89,70,30.09,29.94,9,3,14,0.10
2013-10-20,77.0,61.5,50.0,60.0,56.0,50.0,99,84,53,30.14,29.96,4,0,8,0.10
2013-10-21,73.0,63.0,55.0,68.0,61.3,54.0,99,94,82,30.06,29.90,6,1,9,0.10
2013-10-22,76.0,65.2,55.0,67.0,62.4,55.0,99,91,71,30.09,29.95,9,2,18,0.09
2013-10-23,80.0,62.0,51.0,60.0,55.2,51.0,100,82,43,30.18,30.04,5,0,8,0.06
2013-10-24,83.0,65.7,50.0,59.0,55.0,50.0,100,74,43,30.26,30.10,3,0,7,0.03
2013-10-25,72.0,63.2,52.0,54.0,51.8,50.0,94,69,47,30.43,30.29,6,2,14,0.00
2013-10-26,79.0,60.2,46.0,56.0,49.7,-99.9,98,75,42,30.37,30.12,4,1,9,0.00
2013-10-27,73.0,62.8,52.0,69.0,61.1,52.0,100,94,83,30.18,30.01,5,0,10,0.01
2013-10-28,83.0,69.4,59.0,72.0,64.4,-99.9,100,89,65,30.17,30.03,3,0,9,0.01
2013-10-29,81.0,72.0,64.0,71.0,67.1,63.0,99,86,62,30.20,30.08,7,1,13,0.00
2013-10-30,81.0,72.5,65.0,73.0,68.6,64.0,99,88,69,30.17,29.96,6,2,14,0.00
2013-10-31,79.0,71.4,63.0,73.0,69.3,63.0,99,93,83,29.96,29.77,7,2,15,1.47
2013-11-1,76.0,65.8,55.0,64.0,59.2,54.0,100,82,51,30.00,29.82,5,1,8,1.13
2013-11-2,72.0,60.5,52.0,58.0,50.0,-99.9,99,74,41,30.25,29.98,9,3,22,0.01
2013-11-3,69.0,54.5,43.0,52.0,48.3,43.0,99,82,52,30.32,30.11,5,1,12,0.00
2013-11-4,76.0,62.0,47.0,63.0,56.2,46.0,99,83,58,30.23,30.07,7,2,12,0.00
2013-11-5,77.0,68.6,62.0,69.0,65.3,61.0,98,89,76,30.16,30.03,11,5,18,0.00
2013-11-6,82.0,72.2,66.0,73.0,69.1,65.0,97,90,69,30.14,29.98,7,2,12,0.01
2013-11-7,68.0,57.2,51.0,67.0,50.7,45.0,99,81,51,30.39,30.14,12,6,25,0.01
2013-11-8,68.0,52.8,43.0,50.0,45.0,42.0,98,78,43,30.43,30.22,7,1,17,0.00
2013-11-9,73.0,57.1,44.0,56.0,48.8,-99.9,99,79,51,30.30,30.14,5,0,10,0.00
2013-11-10,78.0,63.5,54.0,61.0,55.6,52.0,95,77,54,30.32,30.17,6,1,14,0.00
2013-11-11,76.0,63.2,50.0,57.0,53.8,49.0,99,75,48,30.30,30.12,4,0,8,0.00
2013-11-14,68.0,60.9,55.0,54.0,51.0,44.0,91,71,53,30.39,30.17,3,0,7,0.00
2013-11-15,80.0,65.9,55.0,67.0,61.3,53.0,96,86,62,30.16,29.91,5,1,9,0.00
2013-11-16,81.0,71.4,67.0,72.0,67.2,-99.9,99,89,70,30.01,29.87,6,2,13,0.00
2013-11-17,83.0,75.8,72.0,76.0,73.6,70.0,97,93,77,29.94,29.80,4,1,10,0.00
2013-11-18,80.0,71.6,59.0,74.0,57.5,45.0,99,65,35,30.15,29.93,10,2,21,0.00
2013-11-19,69.0,57.2,48.0,47.0,42.2,36.0,83,60,33,30.22,30.05,6,2,17,0.00
2013-11-20,76.0,56.9,41.0,58.0,45.9,39.0,95,70,35,30.18,29.97,5,1,10,0.00
2013-11-21,75.0,67.2,58.0,71.0,66.0,57.0,100,96,87,30.16,30.05,7,4,13,0.00
2013-11-22,72.0,67.9,65.0,71.0,66.9,64.0,100,97,86,30.22,30.13,5,1,13,0.02
2013-11-23,67.0,52.7,46.0,66.0,50.6,-99.9,99,96,94,30.45,30.19,12,5,21,0.01
2013-11-24,54.0,45.5,39.0,44.0,37.3,34.0,93,74,49,30.51,30.33,7,4,21,0.01
2013-11-25,46.0,42.6,40.0,46.0,39.2,34.0,100,88,68,30.41,30.01,7,4,18,0.52
2013-11-26,46.0,42.7,41.0,46.0,42.5,40.0,100,99,97,30.24,29.93,10,5,24,0.81
2013-11-27,49.0,40.7,30.0,40.0,35.2,29.0,99,83,57,30.58,30.24,11,4,18,0.02
2013-11-28,49.0,35.4,27.0,35.0,31.4,27.0,99,87,57,30.66,30.48,3,0,7,0.00
2013-11-29,62.0,42.6,27.0,39.0,33.5,27.0,100,76,37,30.70,30.44,5,1,10,0.00
2013-11-30,67.0,43.5,29.0,44.0,32.9,-99.9,100,76,30,30.57,30.32,2,0,6,0.00
2013-12-1,73.0,58.5,35.0,56.0,49.7,34.0,98,76,48,30.40,30.03,2,0,8,0.00
2013-12-2,75.0,65.4,58.0,66.0,62.0,56.0,99,90,68,30.04,29.72,6,2,12,0.00
2013-12-3,79.0,70.3,63.0,70.0,67.4,63.0,100,91,69,29.79,29.66,6,2,13,0.00
2013-12-4,80.0,73.9,71.0,73.0,71.3,70.0,98,92,76,29.88,29.76,4,1,9,0.00
2013-12-5,81.0,75.4,62.0,74.0,72.2,61.0,98,91,73,29.97,29.84,7,1,12,0.00
2013-12-6,62.0,47.7,39.0,61.0,47.5,38.0,100,99,96,30.38,29.94,10,5,21,0.20
2013-12-7,39.0,35.7,35.0,38.0,33.7,-99.9,100,97,96,30.48,30.37,12,6,25,0.01
2013-12-8,44.0,39.4,35.0,44.0,39.4,35.0,100,100,100,30.38,30.14,6,2,10,0.98
2013-12-9,48.0,44.8,40.0,47.0,44.6,40.0,100,99,97,30.28,30.14,8,3,17,0.05
2013-12-10,50.0,40.7,36.0,41.0,38.0,35.0,100,90,70,30.52,30.30,10,6,24,0.05
2013-12-11,50.0,43.1,33.0,45.0,39.8,33.0,100,89,78,30.53,30.40,5,2,10,0.00
2013-12-12,56.0,44.4,35.0,42.0,38.0,33.0,97,79,56,30.63,30.46,6,2,14,0.00
2013-12-13,62.0,48.5,34.0,59.0,44.1,33.0,96,85,74,30.49,29.93,7,2,13,0.00
2013-12-14,66.0,59.5,49.0,66.0,56.1,-99.9,99,92,85,30.22,29.84,12,4,22,0.59
2013-12-15,53.0,44.3,34.0,45.0,39.9,34.0,99,85,66,30.44,30.23,11,4,17,0.04
2013-12-16,63.0,43.5,30.0,47.0,37.8,30.0,100,84,44,30.50,30.25,1,0,6,0.00
2013-12-17,67.0,46.1,32.0,51.0,40.6,32.0,100,85,43,30.47,30.24,3,0,8,0.00
2013-12-18,69.0,51.9,37.0,51.0,44.0,37.0,100,78,43,30.45,30.22,5,0,9,0.00
2013-12-19,76.0,62.9,44.0,64.0,57.4,43.0,99,84,56,30.29,30.00,5,2,13,0.00
2013-12-20,78.0,71.7,67.0,71.0,68.7,64.0,96,91,74,30.01,29.88,6,2,15,0.00
2013-12-21,77.0,70.8,63.0,72.0,67.4,-99.9,99,92,84,29.90,29.65,6,4,17,0.52
2013-12-22,67.0,61.3,47.0,65.0,59.1,45.0,100,93,68,30.29,29.83,9,2,17,0.52
2013-12-23,50.0,42.7,34.0,45.0,38.5,33.0,96,86,65,30.64,30.30,12,5,18,0.00
2013-12-24,54.0,38.0,27.0,39.0,33.7,27.0,100,86,55,30.71,30.45,8,1,13,0.00
2013-12-25,52.0,39.8,29.0,38.0,34.2,29.0,100,83,50,30.55,30.37,4,1,9,0.00
2013-12-26,61.0,46.9,33.0,42.0,38.0,32.0,98,74,43,30.53,30.31,6,1,13,0.00
2013-12-27,56.0,49.4,44.0,43.0,41.5,40.0,89,75,57,30.51,30.35,6,1,12,0.00
2013-12-28,49.0,46.3,44.0,48.0,44.0,-99.9,100,94,76,30.37,30.09,6,1,9,0.53
2013-12-29,65.0,48.5,34.0,50.0,43.2,34.0,100,85,46,30.23,30.04,2,0,7,0.01
2013-12-30,54.0,47.6,42.0,50.0,46.1,42.0,99,95,87,30.44,30.22,6,1,10,0.00
2013-12-31,47.0,43.8,40.0,44.0,41.3,39.0,96,91,83,30.52,30.38,6,2,13,0.00
2014-1-1,59.0,51.3,45.0,57.0,50.4,43.0,100,97,87,30.38,30.07,6,1,8,0.04
2014-1-2,58.0,51.0,39.0,58.0,44.5,32.0,100,80,57,30.50,30.03,14,5,26,0.17